Location: Unspecified
(0.0000°N, 0.0000°E)
Time: 22:30:03
(UTC+00:00)

LES 2 - Pass Details

Date: 16 August 2024
Orbit: 2771 x 14804 km, 32.2° (Epoch: 05 September)

Event Time Altitude Azimuth Distance (km) Brightness Sun altitude
Rises 00:16:28 0° 235° (SW) 8,234 ? -76.0°
Enters shadow 00:19:59 - 229° (SW) 8,012 ? -75.8°
Exits shadow 00:52:30 41° 163° (SSE) 10,036 ? -71.9°
Maximum altitude 01:01:36 42° 149° (SSE) 11,118 ? -70.3°
Drops below altitude 10° 03:17:57 10° 72° (ENE) 17,626 ? -40.2°
Sets 03:38:00 0° 67° (ENE) 17,143 ? -35.4°
